Effective Sunday, March 17, 2024, the National Weather Service National Data Buoy Center will discontinue its Dial-A-Buoy Interactive Voice Response system. For more information, see Service Change Notice 24-06 (PDF).

Station PKBW3 - Pokegama Bay, Lake Superior Reserve, WI Image indicating link to RSS feed of recent meteorological observations for station PKBW3


Conditions at PKBW3 as of
(4:00 pm CST)
2200 GMT on 02/27/2024:
     

Click on the graph icon in the table below to see a time series plot of the last five days of that observation.

5-day plot - Wind Direction Wind Direction (WDIR):NNW ( 340 deg true )
5-day plot - Wind Speed Wind Speed (WSPD): 8.9 kts
5-day plot - Atmospheric Pressure Atmospheric Pressure (PRES):29.53 in
5-day plot - Air Temperature Air Temperature (ATMP): 24.1 °F
5-day plot - Dew Point Dew Point (DEWP): 14.4 °F
5-day plot - Wind Chill Wind Chill (CHILL): 13.8 °F
5-day plot - Wind Speed at 10 Meters Wind Speed at 10 meters (WSPD10M): 9.7 kts
5-day plot - Wind Speed at 20 Meters Wind Speed at 20 meters (WSPD20M): 9.7 kts
5-day plot -  Wind Speed, Wind Gust and Atmospheric Pressure Combined plot of Wind Speed, Gust, and Air Pressure
Previous observations
TIME
(CST)
5-day plot - Wind Direction
WDIR
 
5-day plot - Wind Speed
WSPD
kts
5-day plot - Wind Gust
GST
kts
5-day plot - Wave Height
WVHT
ft
5-day plot - Dominant Wave Period
DPD
sec
5-day plot - Average Wave Period
APD
sec
5-day plot - Mean Wave Direction
MWD
 
5-day plot - Atmospheric Pressure
PRES
in
5-day plot - Pressure Tendency
PTDY
in
5-day plot - Air Temperature
ATMP
°F
5-day plot - Water Temperature
WTMP
°F
5-day plot - Dew Point
DEWP
°F
5-day plot - Salinity
SAL
psu
5-day plot - Visibility
VIS
nmi
5-day plot - Tide (above MLLW)
TIDE
ft
2024-02-27 03:45 pmNNW 8.9-----29.53- 24.8- 15.1---
2024-02-27 03:30 pm N 9.9-----29.50- 25.9- 16.3---
2024-02-27 03:15 pmNNW 12.0-----29.50- 27.3- 18.1---
2024-02-27 08:00 am- 0.0-----29.32-0.03 29.8-----
2024-02-27 07:45 am NW 1.0-----29.32- 28.9-----
2024-02-27 07:30 am- 0.0-----29.32- 28.8-----
2024-02-27 07:15 am- 0.0-----29.35- 28.4-----
2024-02-27 07:00 am SE 1.0-----29.32-0.03 28.4- 28.4---
2024-02-27 06:45 am W 1.0-----29.35- 29.3- 29.3---
2024-02-27 06:30 amNNW 2.9-----29.32- 28.8- 28.8---
2024-02-27 06:15 amNNE 1.9-----29.32- 28.6- 28.6---
2024-02-27 06:00 am NE 2.9-----29.32-0.03 27.9-----
2024-02-27 05:45 am S 1.9-----29.35- 27.0-----
2024-02-27 05:30 amESE 1.9-----29.35- 27.0-----
2024-02-27 05:15 am- 0.0-----29.35- 26.8-----
2024-02-27 05:00 am NW 1.9-----29.35-0.03 26.4-----
2024-02-27 04:45 amSSW 1.0-----29.35- 25.3-----
2024-02-27 04:30 am- 0.0-----29.35- 25.0-----
2024-02-27 04:15 amSSW 1.0-----29.35- 24.6-----
2024-02-27 04:00 am SW 1.9-----29.35-0.06 24.3-----
2024-02-27 03:45 amSSW 1.0-----29.35- 24.4-----
2024-02-27 03:30 amSSW 1.9-----29.35- 24.4-----
2024-02-27 03:15 am- 0.0-----29.35- 24.8-----
2024-02-27 03:00 am SW 1.9-----29.35-0.06 24.3-----
2024-02-27 02:45 amSSW 1.0-----29.35- 24.4-----
2024-02-27 02:30 am- 0.0-----29.38- 24.6-----
2024-02-27 02:15 am- 0.0-----29.38- 24.6-----
2024-02-27 02:00 am- 0.0-----29.38-0.03 25.0-----
2024-02-27 01:45 am- 0.0-----29.38- 25.3-----
2024-02-27 01:30 am- 0.0-----29.38- 25.5-----
2024-02-27 01:15 am- 0.0-----29.38- 25.3-----
2024-02-27 01:00 am- 0.0-----29.41- 25.7-----
2024-02-27 12:45 am- 0.0-----29.41- 25.7-----
2024-02-27 12:30 am- 0.0-----29.41- 26.1-----
2024-02-27 12:15 amSSW 1.0-----29.41- 26.1-----
2024-02-27 12:00 am- 0.0-----29.41- 26.4- 26.4---
2024-02-26 11:45 pm- 0.0-----29.41- 26.8- 26.8---
2024-02-26 11:30 pm SW 1.0-----29.41- 27.0- 27.0---
2024-02-26 11:15 pm- 0.0-----29.41- 27.3- 27.3---
2024-02-26 11:00 pm- 0.0-----29.41- 27.1-----
2024-02-26 10:45 pm- 0.0-----29.41- 27.1-----
2024-02-26 10:30 pm- 0.0-----29.41- 27.0-----
2024-02-26 10:15 pm- 0.0-----29.41- 27.1- 27.1---